星链-34337 (STARLINK-34337)

导读

STARLINK-34337是美国太空探索技术公司(SpaceX)旗下星链(Starlink)星座的卫星,于2025年6月5日搭乘猎鹰9号火箭,从范登堡太空部队基地发射升空,属于星链计划第11-22批次任务,本次任务共将27颗星链卫星送入预定近地轨道。星链星座旨在为全球尤其偏远地区提供高速低延迟宽带互联网服务,该卫星的入轨进一步扩充了星链网络的覆盖规模与服务能力,也见证了SpaceX猎鹰火箭 reused 技术的成熟可靠性。

基本信息
目录编号:
64223
目录名称:
STARLINK-34337
国际标识:
2025-117W
轨道中心:
EARTH
卫星名称:
星链-34337
卫星全名:
星链-34337 (STARLINK-34337)
卫星状态:
在轨 (已飞行378 天)
发射日期:
2025-05-31 UTC
国别 :
美国 (US)
星等 :
--
轨道信息
数据来源 国际轨道数据
星历时间: 2026-06-13T22:25:49+0800
9小时前
查看轨道信息
半长轴: 6840.855km
偏心率: 0.0001412
轨道倾角: 53.162°
近地点辐角 84.183°
升交点赤经 313.861°
平近点角 275.933°
近地点: 461.752km
远地点: 463.684km
周期: 93.848分钟
每日圈数: 15.343953
详细信息
固有亮度:
5
最大亮度:
2.5
卫星平台:
Starlink V1.0
覆盖范围:
全球
运营商:
太空探索技术公司
运营商所在国:
美国
制造商(研发单位):
太空探索技术公司
制造商所在国:
美国
使用方式:
暂无
卫星简介
Starlink 计划是 SpaceX 推出的全球卫星互联网项目,通过发射低轨道卫星,为全球尤其是偏远地区提供高速、低延迟的互联网服务。自 2019 年起,Starlink 已部署数千颗卫星,旨在缩小全球数字鸿沟,推动互联网普及。该项目还为军事、航空等行业提供通信支持,带来广泛经济效益。
2D轨道图
3D轨道图
轨道高度分析图
轨道倾角分析图
轨道综合分析图
查看轨道综合分析图